Estherville, IA

2:58 PM CDT on March 25, 2017 (GMT -0500)
Estherville Municipal

Weather History for KEST - April, 2012

Change the Weather History Date:

Sunday, April 1, 2012

  Actual Average Record
Temperature  
Mean Temperature 61 °F 40 °F  
Max Temperature 82 °F 51 °F 85 °F (1986)
Min Temperature 40 °F 30 °F 12 °F (1975)
Degree Days  
Heating Degree Days 4 25  
Month to date heating degree days 4 25  
Since 1 July heating degree days 5617 6940  
Cooling Degree Days 0 0  
Month to date cooling degree days 0 0  
Year to date cooling degree days 10 0  
Growing Degree Days 10 (Base 50)    
Moisture  
Dew Point 48 °F    
Average Humidity 73    
Maximum Humidity 100    
Minimum Humidity 45    
Precipitation  
Precipitation 0.00 in 0.08 in 0.65 in (1960)
Month to date precipitation 0.00 0.08  
Year to date precipitation 3.04  
Sea Level Pressure  
Sea Level Pressure 29.59 in    
Wind  
Wind Speed 16 mph (East)    
Max Wind Speed 28 mph    
Max Gust Speed 35 mph    
Visibility 4 miles    
Events      
T = Trace of Precipitation, MM = Missing Value Source: NWS Daily Summary

Daily Weather History Graph

Daily Weather History Graph

Search for Another Location

Airport or City:

Trip Planner

Search our weather history database for the weather conditions in past years. The results will help you decide how hot, cold, wet, or windy it might be!

Date:

Astronomy

Apr. 01, 2012 Rise Set
Actual Time 6:59 AM CDT 7:46 PM CDT
Civil Twilight 6:30 AM CDT 8:15 PM CDT
Nautical Twilight 5:56 AM CDT 8:49 PM CDT
Astronomical Twilight 5:21 AM CDT 9:25 PM CDT
Moon 2:08 PM CDT (4/1) 3:46 AM CDT (4/1)
Length of Visible Light 13h 44m
Length of Day
12h 46m
Waxing Gibbous, 69% of the Moon is Illuminated
Apr 1
Waxing Gibbous
Apr 6
Full
Apr 13
Last Quarter
Apr 21
New
Apr 29
First Quarter

Hourly Weather History & Observations

Time (CDT) Temp. Windchill Dew Point Humidity Pressure Visibility Wind Dir Wind Speed Gust Speed Precip Events Conditions
12:08 AM 48.2 °F - 46.4 °F 93% 29.67 in 3.0 mi East 9.2 mph - N/A   Partly Cloudy
12:24 AM 48.2 °F - 46.4 °F 93% 29.67 in 2.5 mi ENE 6.9 mph - N/A   Clear
12:52 AM 46.9 °F - 46.0 °F 97% 29.67 in 2.0 mi ENE 6.9 mph - N/A   Clear
1:36 AM 44.6 °F 41.4 °F 44.6 °F 100% 29.66 in 1.8 mi NE 5.8 mph - N/A   Clear
1:52 AM 45.0 °F 41.8 °F 44.1 °F 97% 29.67 in 1.5 mi ENE 5.8 mph - N/A   Clear
2:52 AM 43.0 °F 38.8 °F 42.1 °F 97% 29.67 in 1.8 mi ENE 6.9 mph - N/A   Clear
3:52 AM 43.0 °F 38.8 °F 41.0 °F 93% 29.65 in 1.5 mi ENE 6.9 mph - N/A   Clear
4:52 AM 43.0 °F 39.5 °F 42.1 °F 97% 29.65 in 1.8 mi ENE 5.8 mph - N/A   Clear
5:02 AM 42.8 °F 38.6 °F 42.8 °F 100% 29.63 in 2.0 mi East 6.9 mph - N/A   Clear
5:42 AM 41.0 °F 36.4 °F 39.2 °F 93% 29.63 in 1.8 mi NE 6.9 mph - N/A   Clear
5:52 AM 41.0 °F 36.4 °F 39.9 °F 96% 29.64 in 1.8 mi ENE 6.9 mph - N/A   Clear
6:14 AM 42.8 °F 38.6 °F 39.2 °F 87% 29.64 in 2.0 mi East 6.9 mph - N/A   Clear
6:42 AM 41.0 °F 38.0 °F 39.2 °F 93% 29.65 in 1.8 mi East 4.6 mph - N/A   Clear
6:52 AM 39.9 °F 34.5 °F 39.0 °F 97% 29.65 in 1.8 mi ENE 8.1 mph - N/A   Clear
7:11 AM 41.0 °F 37.1 °F 39.2 °F 93% 29.64 in 1.0 mi ENE 5.8 mph - N/A   Clear
7:31 AM 41.0 °F 36.4 °F 39.2 °F 93% 29.65 in 1.2 mi ENE 6.9 mph - N/A   Clear
7:52 AM 42.1 °F 37.1 °F 41.0 °F 96% 29.66 in 1.5 mi ENE 8.1 mph - N/A   Clear
8:17 AM 42.8 °F 36.2 °F 41.0 °F 93% 29.65 in 1.8 mi ENE 12.7 mph - N/A   Partly Cloudy
9:23 AM 46.4 °F 40.4 °F 44.6 °F 93% 29.65 in 3.0 mi East 13.8 mph - N/A   Partly Cloudy
9:52 AM 50.0 °F - 46.0 °F 86% 29.65 in 4.0 mi East 12.7 mph 20.7 mph N/A   Clear
10:52 AM 57.9 °F - 48.0 °F 70% 29.62 in 6.0 mi ESE 12.7 mph - N/A   Haze
11:52 AM 64.9 °F - 52.0 °F 63% 29.59 in 7.0 mi SE 20.7 mph 24.2 mph N/A   Clear
12:52 PM 68.0 °F - 54.0 °F 61% 29.57 in 7.0 mi SE 20.7 mph 28.8 mph N/A   Clear
1:52 PM 73.0 °F - 55.9 °F 55% 29.53 in 8.0 mi SSE 17.3 mph 26.5 mph N/A   Clear
2:52 PM 78.1 °F - 57.9 °F 50% 29.50 in 10.0 mi SSE 17.3 mph 26.5 mph N/A   Clear
3:52 PM 80.1 °F - 57.0 °F 45% 29.48 in 10.0 mi SE 20.7 mph 26.5 mph N/A   Clear
4:52 PM 81.0 °F - 57.9 °F 45% 29.46 in 10.0 mi SE 21.9 mph 26.5 mph N/A   Clear
5:52 PM 80.1 °F - 57.9 °F 47% 29.46 in 10.0 mi ESE 20.7 mph - N/A   Clear
6:52 PM 75.0 °F - 59.0 °F 57% 29.46 in 9.0 mi ESE 25.3 mph 29.9 mph N/A   Clear
7:52 PM 70.0 °F - 57.9 °F 65% 29.48 in 8.0 mi ESE 21.9 mph 26.5 mph N/A   Clear
8:52 PM 66.0 °F - 57.0 °F 73% 29.50 in 8.0 mi ESE 20.7 mph - N/A   Clear
9:52 PM 62.1 °F - 55.9 °F 80% 29.53 in 7.0 mi ESE 23.0 mph - N/A   Clear
10:52 PM 59.0 °F - 55.0 °F 87% 29.52 in 5.0 mi ESE 21.9 mph 29.9 mph N/A   Clear
11:39 PM 57.2 °F - 53.6 °F 88% 29.54 in 4.0 mi SE 19.6 mph 28.8 mph N/A   Mostly Cloudy
11:52 PM 57.0 °F - 54.0 °F 89% 29.53 in 4.0 mi SE 19.6 mph 27.6 mph N/A   Overcast